OBJECT XT, 66907

Orbit data source: Space-Track

You're viewing an Uncataloged Satellite

Recently launched and/or uncataloged satellites may have evolving metadata. Metadata may include but not limited to: Owner, Maufacturer, Bus, Motor, and Mission.

OBJECT XT, 66907 is an American satellite in LEO that was delivered to and deployed from the ISS. Unknown objects in Earth's orbit typically refer to objects detected orbiting the Earth but have not yet been identified or cataloged. These objects could be anything from previously untracked satellites, spent rocket stages, debris from satellite collisions, or even natural meteoroids temporarily captured by Earth's gravity.

Not visible in the next 10 days
Identifier
66907, 1998-067XT
Orbit
LEO
Country
Flag of USUS
Related business
None
Manufacturer
Unknown
Mission
Operational Amateur Technology
Bus & Motor
Unknown
Mass
Unknown
Launch date (UTC)
1998-11-20 (27 years ago)
Launch vehicle
FALCON 9
Launch site
Tyuratam Missile And Space Complex (TTMTR)
Object type
Unknown
Shape & HBR
Box + 1 Ant, 0.1 m
Radar Cross Section
0.030 m²

Expand to show TLE details & history
Last TLE update: 11 hours ago

TLE from 11 hours ago
0 OBJECT XT
1 66907U 98067XT  26106.53802279  .00264844  00000-0  97067-3 0  9999
2 66907  51.6199 230.3094 0010682 319.2164  40.8040 15.86987191 21155
Epoch: 2026-04-16T12:54Z
TLE epoch observation values (Epoch: 2026-04-16T12:54:45.169Z)
Latitude
0.00001°
Longitude
-168.06293°
Altitude
306.081 km
Speed
7.729 km/s
True Right ascension
15h 21m 14s
True Declination
0° 00' 00"
Sunlit
Object was in full shadow at epoch
Visualization orbit readout
Latitude
Unknown
Longitude
Unknown
Altitude
Unknown
Speed
Unknown
Apparent Right ascension
Unknown
Apparent Declination
Unknown
Sunlit
N/A
Visualization observer readout
Local Sidereal Time
06:09:21
Azimuth
Unknown
Elevation
Unknown
Doppler factor
Unknown
Orbital elements
Apogee altitude
318.4 km
Perigee altitude
304.109 km
Semi-major axis
6,689.391 km
Eccentricity
0.00107
Inclination
51.6199°
RAAN
230.3094°
Arg. of periapsis
319.2164°
True anomaly
40.88407°
Mean anomaly
40.804°
Eccentric anomaly
40.84403°
Mean motion
3.96701 °/min
Orbital period
90.75 mins
BSTAR
0.00097067
Loading maneuver chart data...
Computing Atmospheric mass density...

Documentation

Showing up to 5 results
|